EW1474 Weather Reports


Display with metric or nautical units.
time (UTC)temp
F
wind
direction
speed
MPH
gust
MPH
rain 1hr
in
rain 24hr
in
rain mn
in
humidity
%
barometer
mb
20260508111143 44 257 2.0 3.0 0.00 0.00 0.00 73 1007.4
20260508110640 43 327 1.0 2.0 0.00 0.00 0.00 73 1007.4
20260508110137 43 331 1.0 5.0 0.00 0.00 0.00 73 1007.2
20260508105631 43 318 2.0 3.0 0.00 0.00 0.00 72 1007.5
20260508105129 43 328 1.0 2.0 0.00 0.00 0.00 74 1007.3
20260508104627 42 0 3.0 3.0 0.00 0.00 0.00 72 1007.2
20260508104123 42 290 1.0 2.0 0.00 0.00 0.00 72 1007.1
20260508103620 42 306 1.0 2.0 0.00 0.00 0.00 73 1006.8
20260508103117 42 308 2.0 2.0 0.00 0.00 0.00 72 1007.0
20260508102614 42 308 1.0 2.0 0.00 0.00 0.00 72 1006.8
20260508102112 42 267 1.0 2.0 0.00 0.00 0.00 72 1006.9
20260508101609 42 252 0.0 2.0 0.00 0.00 0.00 72 1006.7
20260508101107 42 354 0.0 2.0 0.00 0.00 0.00 72 1006.6
20260508100604 41 335 0.0 2.0 0.00 0.00 0.00 73 1006.6
20260508095558 41 320 1.0 2.0 0.00 0.00 0.00 74 1006.5
20260508095055 40 280 1.0 2.0 0.00 0.00 0.00 75 1006.6
20260508094552 39 347 1.0 2.0 0.00 0.00 0.00 77 1006.3
20260508094049 39 256 1.0 2.0 0.00 0.00 0.00 76 1006.5
20260508093546 38 0 1.0 1.0 0.00 0.00 0.00 80 1006.4
20260508093044 38 19 0.0 0.0 0.00 0.00 0.00 83 1006.7
20260508092541 38 19 0.0 0.0 0.00 0.00 0.00 80 1006.2
20260508092040 38 18 0.0 0.0 0.00 0.00 0.00 78 1006.4
20260508091536 39 18 0.0 1.0 0.00 0.00 0.00 79 1006.3
20260508091033 39 18 0.0 0.0 0.00 0.00 0.00 78 1006.5
20260508090532 39 19 0.0 1.0 0.00 0.00 0.00 78 1006.2
20260508090028 39 17 1.0 1.0 0.00 0.00 0.00 78 1006.4
20260508085524 40 288 0.0 1.0 0.00 0.00 0.00 71 1006.5
20260508085021 40 333 0.0 1.0 0.00 0.00 0.00 72 1006.3
20260508084518 40 333 0.0 0.0 0.00 0.00 0.00 70 1006.4
20260508084016 40 353 0.0 1.0 0.00 0.00 0.00 71 1006.2
20260508083513 41 293 0.0 1.0 0.00 0.00 0.00 69 1006.3
20260508083009 41 352 1.0 1.0 0.00 0.00 0.00 69 1006.2
20260508082505 41 323 1.0 1.0 0.00 0.00 0.00 69 1006.2
20260508082003 41 328 1.0 2.0 0.00 0.00 0.00 68 1006.3
20260508081500 41 299 2.0 3.0 0.00 0.00 0.00 69 1006.2
20260508080955 41 341 0.0 1.0 0.00 0.00 0.00 69 1005.9
20260508080454 42 263 1.0 3.0 0.00 0.00 0.00 68 1005.8
20260508075950 42 288 2.0 3.0 0.00 0.00 0.00 68 1005.8
20260508075447 42 271 1.0 5.0 0.00 0.00 0.00 68 1005.8
20260508074945 42 319 1.0 2.0 0.00 0.00 0.00 68 1005.9
20260508074443 42 248 0.0 2.0 0.00 0.00 0.00 67 1006.0
20260508073939 42 358 2.0 5.0 0.00 0.00 0.00 66 1006.0
20260508073437 42 236 1.0 2.0 0.00 0.00 0.00 66 1005.8
20260508072934 42 284 3.0 3.0 0.00 0.00 0.00 65 1005.7
20260508072430 42 229 2.0 6.0 0.00 0.00 0.00 64 1005.7
20260508071927 42 246 1.0 2.0 0.00 0.00 0.00 64 1005.7
20260508071425 43 250 1.0 3.0 0.00 0.00 0.00 63 1005.7
20260508070923 43 308 2.0 6.0 0.00 0.00 0.00 62 1005.7
20260508070420 43 254 2.0 3.0 0.00 0.00 0.00 63 1005.8
20260508065918 43 316 1.0 3.0 0.00 0.00 0.00 63 1005.8
20260508065416 43 261 2.0 2.0 0.00 0.00 0.00 64 1005.8
20260508064914 43 307 1.0 5.0 0.00 0.00 0.00 63 1005.9
20260508064411 43 293 3.0 5.0 0.00 0.00 0.00 63 1006.0
20260508063909 43 314 1.0 3.0 0.00 0.00 0.00 61 1005.8
20260508063406 43 286 1.0 3.0 0.00 0.00 0.00 61 1005.9
20260508062903 43 270 2.0 3.0 0.00 0.00 0.00 60 1006.0
20260508062401 43 281 2.0 2.0 0.00 0.00 0.00 60 1006.0
20260508061858 43 357 3.0 3.0 0.00 0.00 0.00 59 1006.0
20260508061355 44 229 0.0 5.0 0.00 0.00 0.00 59 1006.1
20260508060851 44 234 2.0 3.0 0.00 0.00 0.00 58 1006.0
20260508060349 44 268 2.0 2.0 0.00 0.00 0.00 58 1006.1
20260508055844 44 272 2.0 3.0 0.00 0.00 0.00 58 1006.2
20260508055342 44 259 3.0 5.0 0.00 0.00 0.00 57 1006.2
20260508054838 44 316 3.0 5.0 0.00 0.00 0.00 57 1006.2
20260508054336 44 257 2.0 3.0 0.00 0.00 0.00 57 1006.2
20260508053832 44 4 1.0 2.0 0.00 0.00 0.00 57 1006.2
20260508053330 44 307 1.0 2.0 0.00 0.00 0.00 59 1006.3
20260508052827 44 317 1.0 2.0 0.00 0.00 0.00 58 1006.5
20260508052324 44 358 1.0 2.0 0.00 0.00 0.00 62 1006.5
20260508051820 44 14 0.0 1.0 0.00 0.00 0.00 64 1006.5
20260508051316 44 24 0.0 1.0 0.00 0.00 0.00 64 1006.4
20260508050812 45 346 1.0 3.0 0.00 0.00 0.00 59 1006.3
20260508050310 44 270 2.0 3.0 0.00 0.00 0.00 59 1006.6
20260508045805 44 356 0.0 2.0 0.00 0.00 0.00 62 1006.4
20260508045306 44 16 0.0 1.0 0.00 0.00 0.00 61 1006.4
20260508044801 44 24 1.0 2.0 0.00 0.00 0.00 65 1006.6
20260508044257 45 30 1.0 3.0 0.00 0.00 0.00 66 1006.8
20260508043753 45 31 1.0 2.0 0.00 0.00 0.00 63 1006.6
20260508043251 45 41 1.0 2.0 0.00 0.00 0.00 57 1006.6
20260508042747 45 32 1.0 3.0 0.00 0.00 0.00 56 1006.6
20260508042245 45 347 0.0 2.0 0.00 0.00 0.00 55 1006.7
20260508041741 45 8 1.0 2.0 0.00 0.00 0.00 56 1006.6
20260508041238 45 351 1.0 1.0 0.00 0.00 0.00 56 1006.7
20260508040734 46 2 1.0 2.0 0.00 0.00 0.00 55 1006.7
20260508040232 46 25 1.0 3.0 0.00 0.00 0.00 55 1006.8
20260508035729 46 265 1.0 5.0 0.00 0.23 0.23 53 1007.1
20260508035226 46 289 0.0 1.0 0.00 0.23 0.23 55 1006.9
20260508034723 46 328 2.0 2.0 0.00 0.23 0.23 54 1007.1
20260508034220 45 268 2.0 3.0 0.00 0.23 0.23 54 1007.2
20260508033717 45 301 0.0 2.0 0.00 0.23 0.23 55 1007.0
20260508033216 45 358 1.0 3.0 0.00 0.23 0.23 55 1007.3
20260508032713 44 333 2.0 2.0 0.00 0.23 0.23 56 1007.2
20260508032209 44 343 1.0 2.0 0.00 0.23 0.23 57 1007.0
20260508031706 44 358 1.0 1.0 0.00 0.23 0.23 57 1007.1
20260508031202 44 5 0.0 1.0 0.00 0.23 0.23 56 1007.3
20260508030659 44 7 0.0 1.0 0.00 0.23 0.23 57 1007.3
20260508030157 45 8 1.0 1.0 0.00 0.23 0.23 58 1007.0
20260508025653 45 8 0.0 1.0 0.00 0.23 0.23 56 1007.0
20260508025150 45 21 0.0 1.0 0.00 0.23 0.23 56 1007.0
20260508024646 45 29 1.0 1.0 0.00 0.23 0.23 56 1006.7
20260508024143 46 3 1.0 2.0 0.00 0.23 0.23 55 1006.8
20260508023639 46 1 1.0 2.0 0.00 0.23 0.23 52 1006.7
20260508023137 45 19 0.0 0.0 0.00 0.23 0.23 54 1006.7
20260508022632 46 23 0.0 1.0 0.00 0.23 0.23 54 1006.7
20260508022130 46 24 0.0 1.0 0.00 0.23 0.23 55 1006.7
20260508021626 46 17 0.0 1.0 0.00 0.23 0.23 54 1006.9
20260508021121 46 3 1.0 2.0 0.00 0.23 0.23 54 1006.8
20260508020620 47 359 1.0 1.0 0.00 0.23 0.23 51 1006.8
20260508020117 47 339 2.0 3.0 0.00 0.23 0.23 51 1006.8
20260508015614 48 329 2.0 2.0 0.00 0.23 0.23 51 1006.8
20260508015111 48 354 1.0 2.0 0.00 0.23 0.23 51 1006.9
20260508014607 48 317 1.0 2.0 0.00 0.23 0.23 49 1007.0
20260508014104 48 5 1.0 2.0 0.00 0.23 0.23 49 1006.9
20260508013600 48 334 1.0 3.0 0.00 0.23 0.23 51 1007.0
20260508013057 48 332 3.0 5.0 0.00 0.23 0.23 49 1007.0
20260508012554 48 25 1.0 2.0 0.00 0.23 0.23 53 1007.1
20260508012052 48 335 2.0 5.0 0.00 0.23 0.23 50 1006.8
20260508011550 49 9 2.0 3.0 0.00 0.23 0.23 53 1006.9
20260508011047 49 2 1.0 3.0 0.00 0.23 0.23 52 1006.9
20260508010543 49 355 0.0 2.0 0.00 0.23 0.23 52 1007.1
20260508010041 49 334 2.0 5.0 0.00 0.23 0.23 50 1006.9
20260508005537 50 10 1.0 3.0 0.00 0.23 0.23 50 1006.8
20260508005034 50 23 2.0 6.0 0.00 0.23 0.23 49 1006.8
20260508004530 50 303 3.0 3.0 0.00 0.23 0.23 50 1006.6
20260508004027 50 335 3.0 5.0 0.00 0.23 0.23 50 1006.7
20260508003523 50 16 2.0 5.0 0.00 0.23 0.23 50 1006.6
20260508003021 51 6 2.0 6.0 0.00 0.23 0.23 51 1006.6
20260508002517 51 313 3.0 3.0 0.00 0.23 0.23 50 1006.7
20260508002015 51 317 4.0 5.0 0.00 0.23 0.23 50 1006.5
20260508001510 51 341 4.0 7.0 0.00 0.23 0.23 48 1006.4
20260508001007 52 281 3.0 5.0 0.00 0.23 0.23 48 1006.1
20260508000503 52 11 4.0 9.0 0.00 0.23 0.23 50 1006.1
20260508000000 53 32 1.0 2.0 0.00 0.23 0.23 54 1006.0
20260507235456 53 330 2.0 3.0 0.00 0.23 0.23 55 1005.7
20260507234954 53 355 4.0 8.0 0.00 0.23 0.23 54 1005.9
20260507234450 54 28 4.0 6.0 0.00 0.23 0.23 53 1005.5
20260507233949 54 41 5.0 6.0 0.00 0.23 0.23 55 1005.5
20260507233444 54 30 3.0 6.0 0.00 0.23 0.23 57 1005.3
20260507232942 54 358 2.0 8.0 0.00 0.23 0.23 60 1005.3
20260507232438 55 302 4.0 6.0 0.00 0.23 0.23 60 1005.1
20260507231936 55 346 3.0 6.0 0.00 0.23 0.23 70 1005.0
20260507231432 55 0 2.0 3.0 0.00 0.23 0.23 71 1005.0
20260507230929 55 21 5.0 6.0 0.00 0.23 0.23 71 1004.8
20260507230426 55 1 1.0 3.0 0.00 0.23 0.23 70 1004.5
20260507225926 55 8 1.0 2.0 0.00 0.23 0.23 71 1004.6
20260507225422 55 27 1.0 5.0 0.00 0.23 0.23 70 1004.4
20260507224919 55 35 2.0 5.0 0.00 0.23 0.23 71 1004.4
20260507224415 55 23 3.0 5.0 0.00 0.23 0.23 71 1004.1
20260507223912 55 27 1.0 1.0 0.00 0.23 0.23 73 1004.0
20260507223408 55 28 0.0 1.0 0.00 0.23 0.23 70 1004.1
20260507222905 55 30 0.0 1.0 0.00 0.23 0.23 73 1004.1
20260507222402 56 27 1.0 2.0 0.00 0.23 0.23 70 1004.0
20260507221859 56 231 0.0 0.0 0.00 0.23 0.23 70 1003.9
20260507221355 56 231 0.0 1.0 0.00 0.23 0.23 68 1003.9
20260507220851 56 134 1.0 1.0 0.00 0.23 0.23 68 1004.1
20260507220349 57 157 1.0 1.0 0.00 0.23 0.23 67 1003.9
20260507215845 57 274 0.0 1.0 0.00 0.23 0.23 66 1003.9
20260507215342 57 154 0.0 1.0 0.00 0.23 0.23 65 1003.9
20260507214839 57 293 0.0 0.0 0.00 0.23 0.23 65 1003.8
20260507214337 57 161 0.0 2.0 0.00 0.23 0.23 64 1003.8
20260507213832 57 274 0.0 1.0 0.00 0.23 0.23 64 1003.9
20260507213329 57 140 1.0 1.0 0.00 0.23 0.23 63 1004.0
20260507212826 57 240 0.0 1.0 0.00 0.23 0.23 63 1003.9
20260507212321 57 289 2.0 3.0 0.00 0.23 0.23 64 1004.0
20260507211818 58 49 0.0 1.0 0.00 0.23 0.23 67 1003.6
20260507211315 58 319 0.0 1.0 0.00 0.23 0.23 62 1003.9
20260507210812 58 246 2.0 2.0 0.00 0.23 0.23 60 1003.9
20260507210309 58 327 2.0 3.0 0.00 0.23 0.23 59 1003.7
20260507205805 59 219 3.0 3.0 0.00 0.23 0.23 58 1003.7
20260507205306 59 204 1.0 1.0 0.00 0.23 0.23 58 1003.5
20260507204758 59 287 0.0 1.0 0.00 0.23 0.23 61 1003.5
20260507204256 59 247 1.0 1.0 0.00 0.23 0.23 57 1003.3
20260507203754 59 231 1.0 2.0 0.00 0.23 0.23 56 1003.4
20260507203251 60 232 1.0 1.0 0.00 0.23 0.23 53 1003.5
20260507202748 60 144 0.0 1.0 0.00 0.23 0.23 55 1003.3
20260507202243 60 56 1.0 1.0 0.00 0.23 0.23 56 1003.3
20260507201738 60 151 1.0 2.0 0.00 0.23 0.23 53 1003.3
20260507201235 60 164 1.0 1.0 0.00 0.23 0.23 52 1003.5
20260507200731 61 242 1.0 2.0 0.00 0.23 0.23 52 1003.4
20260507200228 62 202 1.0 6.0 0.00 0.23 0.23 51 1003.2
20260507195724 61 276 3.0 3.0 0.00 0.23 0.23 54 1003.5
20260507195222 61 200 2.0 5.0 0.00 0.23 0.23 51 1003.4
20260507194719 61 87 1.0 1.0 0.00 0.23 0.23 51 1003.4
20260507194215 61 243 1.0 2.0 0.00 0.23 0.23 50 1003.1
20260507193711 61 0 0.0 2.0 0.00 0.23 0.23 52 1003.3
20260507193208 60 249 4.0 6.0 0.00 0.23 0.23 50 1003.6
20260507192704 60 341 0.0 2.0 0.00 0.23 0.23 52 1003.7
20260507192201 59 2 0.0 1.0 0.00 0.23 0.23 54 1003.6
20260507191657 59 277 2.0 5.0 0.00 0.23 0.23 53 1003.4
20260507191154 59 280 1.0 2.0 0.00 0.23 0.23 53 1003.4
20260507190651 59 213 1.0 2.0 0.00 0.23 0.23 53 1003.5
20260507190150 59 151 1.0 2.0 0.00 0.23 0.23 52 1003.4
20260507185648 59 260 0.0 2.0 0.00 0.23 0.23 55 1003.6
20260507185144 59 343 0.0 2.0 0.00 0.23 0.23 54 1003.7
20260507184642 60 270 1.0 1.0 0.00 0.23 0.23 49 1003.6
20260507184140 60 268 0.0 3.0 0.00 0.23 0.23 49 1003.9
20260507183636 60 202 1.0 2.0 0.00 0.23 0.23 50 1003.7
20260507183133 60 53 0.0 2.0 0.00 0.23 0.23 49 1003.8
20260507182630 60 237 1.0 2.0 0.00 0.23 0.23 48 1003.8
20260507182126 60 292 1.0 1.0 0.00 0.23 0.23 48 1003.7
20260507181622 60 65 1.0 3.0 0.00 0.23 0.23 47 1003.9
20260507181118 60 320 0.0 1.0 0.00 0.23 0.23 49 1003.9
20260507180615 61 200 0.0 1.0 0.00 0.23 0.23 53 1004.1
20260507180112 60 196 2.0 3.0 0.00 0.23 0.23 47 1004.0
20260507175608 60 121 1.0 2.0 0.00 0.23 0.23 47 1003.9
20260507175106 61 217 3.0 3.0 0.00 0.23 0.23 45 1004.0
20260507174602 61 241 1.0 1.0 0.00 0.23 0.23 47 1004.0
20260507174100 60 247 1.0 3.0 0.00 0.23 0.23 47 1004.1
20260507173557 60 332 0.0 3.0 0.00 0.23 0.23 47 1004.2
20260507173054 60 21 2.0 3.0 0.00 0.23 0.23 45 1004.1
20260507172550 61 12 0.0 2.0 0.00 0.23 0.23 43 1004.0
20260507172047 62 225 1.0 3.0 0.00 0.23 0.23 44 1004.1
20260507171542 61 234 1.0 3.0 0.00 0.23 0.23 46 1004.1
20260507171040 60 33 1.0 1.0 0.00 0.23 0.23 46 1004.3
20260507170537 60 38 1.0 2.0 0.00 0.23 0.23 51 1004.2
20260507170034 60 3 0.0 5.0 0.00 0.23 0.23 50 1004.4
20260507165529 60 266 3.0 3.0 0.00 0.23 0.23 48 1004.3
20260507165026 59 257 2.0 3.0 0.00 0.23 0.23 48 1004.6
20260507164522 60 203 2.0 5.0 0.00 0.23 0.23 49 1004.7
20260507164019 59 194 1.0 5.0 0.00 0.23 0.23 50 1004.7
20260507163516 59 355 3.0 5.0 0.00 0.23 0.23 51 1004.7
20260507163015 59 235 2.0 3.0 0.00 0.23 0.23 49 1004.6
20260507162509 58 38 0.0 2.0 0.00 0.23 0.23 53 1004.7
20260507162006 57 33 3.0 3.0 0.00 0.23 0.23 52 1004.7
20260507161503 57 37 1.0 2.0 0.00 0.23 0.23 52 1004.8
20260507160959 56 36 2.0 3.0 0.00 0.23 0.23 55 1004.7
20260507160455 56 72 1.0 2.0 0.00 0.23 0.23 55 1004.7
20260507155951 56 31 2.0 3.0 0.00 0.23 0.23 53 1004.7
20260507155447 56 32 3.0 5.0 0.00 0.23 0.23 54 1005.1
20260507154944 56 26 1.0 5.0 0.00 0.23 0.23 54 1005.1
20260507154441 55 37 2.0 2.0 0.00 0.23 0.23 59 1005.2
20260507153938 56 38 2.0 5.0 0.00 0.23 0.23 57 1005.3
20260507153435 55 28 1.0 6.0 0.00 0.23 0.23 58 1005.4
20260507152931 55 11 2.0 3.0 0.00 0.23 0.23 63 1005.4
20260507152427 56 42 1.0 2.0 0.00 0.23 0.23 61 1005.4
20260507151923 56 323 2.0 2.0 0.00 0.23 0.23 61 1005.5
20260507151420 55 43 0.0 2.0 0.00 0.23 0.23 65 1005.6
20260507150917 55 45 2.0 5.0 0.00 0.23 0.23 65 1005.6
20260507150414 55 45 0.0 1.0 0.00 0.23 0.23 67 1005.6
20260507145910 54 238 3.0 3.0 0.00 0.23 0.23 68 1005.8
20260507145406 54 49 1.0 1.0 0.00 0.23 0.23 69 1005.9
20260507144903 53 31 0.0 1.0 0.00 0.23 0.23 71 1005.9
20260507144400 54 74 0.0 0.0 0.00 0.23 0.23 72 1006.0
20260507143857 53 45 0.0 0.0 0.00 0.23 0.23 71 1006.1
20260507143354 52 21 1.0 2.0 0.00 0.23 0.23 73 1006.2
20260507142851 52 28 2.0 3.0 0.00 0.23 0.23 74 1005.9
20260507142347 52 38 1.0 2.0 0.00 0.23 0.23 74 1006.0
20260507141844 53 53 0.0 1.0 0.00 0.23 0.23 74 1006.0
20260507141340 51 23 1.0 2.0 0.00 0.23 0.23 75 1006.1
20260507140837 51 47 1.0 5.0 0.00 0.23 0.23 76 1006.2
20260507140334 51 35 1.0 6.0 0.00 0.23 0.23 76 1006.2
20260507135832 51 22 2.0 3.0 0.00 0.23 0.23 77 1006.4
20260507135328 51 48 1.0 3.0 0.00 0.23 0.23 78 1006.1
20260507134826 50 44 2.0 2.0 0.00 0.23 0.23 77 1006.4
20260507134322 50 41 3.0 5.0 0.00 0.23 0.23 77 1006.2
20260507133817 50 7 3.0 3.0 0.00 0.23 0.23 77 1006.2
20260507133313 50 44 2.0 5.0 0.00 0.23 0.23 81 1006.3
20260507132812 50 35 1.0 2.0 0.00 0.23 0.23 82 1006.1
20260507132308 50 22 2.0 6.0 0.00 0.23 0.23 83 1006.4
20260507131805 49 22 2.0 6.0 0.00 0.23 0.23 83 1006.0
20260507131302 50 16 2.0 6.0 0.00 0.23 0.23 82 1006.3
20260507130759 49 26 2.0 5.0 0.00 0.23 0.23 83 1006.4
20260507130256 49 24 2.0 5.0 0.00 0.23 0.23 85 1006.4
20260507125755 49 21 3.0 3.0 0.00 0.23 0.23 85 1006.5
20260507125252 49 4 3.0 6.0 0.00 0.23 0.23 85 1006.5
20260507124749 49 280 3.0 8.0 0.00 0.23 0.23 86 1006.3
20260507124245 48 15 4.0 6.0 0.00 0.23 0.23 87 1006.2
20260507123744 48 18 4.0 6.0 0.00 0.23 0.23 87 1005.9
20260507123241 48 26 3.0 6.0 0.00 0.23 0.23 89 1006.3
20260507122737 48 23 3.0 7.0 0.00 0.23 0.23 88 1006.6
20260507122232 48 27 1.0 2.0 0.00 0.23 0.23 91 1006.1
20260507121728 47 331 1.0 3.0 0.00 0.23 0.23 91 1006.2
20260507121224 47 7 1.0 3.0 0.00 0.23 0.23 92 1006.5
20260507120721 46 21 2.0 3.0 0.00 0.23 0.23 94 1006.6
20260507120218 46 40 1.0 1.0 0.00 0.23 0.23 94 1006.9
20260507115714 46 117 1.0 1.0 0.00 0.23 0.23 94 1006.9
20260507115210 46 27 1.0 2.0 0.00 0.23 0.23 96 1006.5
20260507114705 46 53 0.0 1.0 0.00 0.23 0.23 96 1006.7
20260507114203 46 95 0.0 1.0 0.00 0.23 0.23 95 1007.3
20260507113700 46 359 1.0 2.0 0.00 0.23 0.23 94 1007.0
20260507113157 46 289 1.0 3.0 0.00 0.23 0.23 96 1006.6
20260507112655 46 25 2.0 3.0 0.00 0.23 0.23 96 1006.6
20260507112152 45 6 1.0 1.0 0.00 0.23 0.23 95 1007.3
20260507111649 45 315 1.0 2.0 0.00 0.23 0.23 97 1007.2